Weather History for Vancouver, BC

Change the Weather History Date:

Wednesday, January 1, 2014

  Actual Average Record
Temperature  
Mean Temperature 40 °F -  
Max Temperature 43 °F 40 °F 51 °F (2001)
Min Temperature 37 °F 32 °F 21 °F (2011)
Degree Days  
Heating Degree Days 25    
Moisture  
Dew Point 41 °F    
Average Humidity 96    
Maximum Humidity 100    
Minimum Humidity 90    
Precipitation  
Precipitation 0.02 in - - ()
Sea Level Pressure  
Sea Level Pressure 30.38 in    
Wind  
Wind Speed 3 mph ()    
Max Wind Speed 5 mph    
Max Gust Speed -    
Visibility 11.6 miles    
Events Fog , Rain    
Averages and records for this station are not official NWS values.
T = Trace of Precipitation, MM = Missing Value Source: Averaged Metar Reports

Daily Weather History Graph

Daily Weather History Graph

Search for Another Location

Airport:

Trip Planner

Search our weather history database for the weather conditions in past years. The results will help you decide how hot, cold, wet, or windy it might be!

Date:

Astronomy

Jan. 01, 2014 Rise Set
Actual Time 8:07 AM PST 4:25 PM PST
Civil Twilight 7:30 AM PST 5:02 PM PST
Nautical Twilight 6:49 AM PST 5:43 PM PST
Astronomical Twilight 6:11 AM PST 6:21 PM PST
Moon 7:56 AM PST (1/1) 5:24 PM PST (1/1)
Length of Visible Light 9h 32m
Length of Day
8h 17m
New Moon, 0% of the Moon is Illuminated
Jan 1
New Moon
Jan 7
First Quarter
Jan 15
Full
Jan 23
Last Quarter
Jan 30
New

Hourly Weather History & Observations

Time (PST) Temp. Windchill Dew Point Humidity Pressure Visibility Wind Dir Wind Speed Gust Speed Precip Events Conditions
12:00 AM 41.0 °F 38.0 °F 41.0 °F 100% 30.40 in 0.2 mi East 4.6 mph - N/A Fog Fog
12:17 AM 41.0 °F - 41.0 °F 100% 30.41 in 0.4 mi ESE 2.3 mph - N/A Fog Fog
1:00 AM 41.0 °F - 41.0 °F 100% 30.41 in 0.4 mi Variable 2.3 mph - N/A Fog Fog
1:26 AM 41.0 °F - 41.0 °F 100% 30.41 in 0.5 mi Calm Calm - N/A Fog Fog
1:39 AM 41.0 °F - 41.0 °F 100% 30.42 in 0.8 mi Calm Calm - N/A   Overcast
2:00 AM 41.0 °F - 41.0 °F 100% 30.43 in 0.8 mi Calm Calm - N/A   Overcast
2:33 AM 41.0 °F - 41.0 °F 100% 30.43 in 1.2 mi East 2.3 mph - N/A   Overcast
2:51 AM 41.0 °F 38.0 °F 41.0 °F 100% 30.43 in 0.5 mi North 4.6 mph - N/A Fog Fog
2:57 AM 41.0 °F 38.0 °F 39.2 °F 93% 30.43 in 1.0 mi North 4.6 mph - N/A   Mostly Cloudy
3:00 AM 41.0 °F 38.0 °F 39.2 °F 93% 30.43 in 1.2 mi East 4.6 mph - N/A   Mostly Cloudy
3:05 AM 39.2 °F 35.9 °F 39.2 °F 100% 30.43 in 4.0 mi North 4.6 mph - N/A   Mostly Cloudy
4:00 AM 40 °F - 40 °F 100% 30.43 in 7 mi Calm Calm - -   Overcast
4:00 AM 41.0 °F 38.0 °F 39.2 °F 93% 30.43 in 8.0 mi North 4.6 mph - N/A   Overcast
5:00 AM 41.0 °F 38.0 °F 39.2 °F 93% 30.42 in 15.0 mi East 4.6 mph - N/A   Overcast
6:00 AM 39.2 °F - 39.2 °F 100% 30.42 in 15.0 mi SSE 2.3 mph - N/A   Mostly Cloudy
6:21 AM 39.2 °F - 39.2 °F 100% 30.42 in 15.0 mi Calm Calm - N/A Fog Shallow Fog
7:00 AM 39.2 °F - 39.2 °F 100% 30.41 in 15.0 mi NE 2.3 mph - N/A Fog Shallow Fog
8:00 AM 39.2 °F - 39.2 °F 100% 30.41 in 15.0 mi Calm Calm - N/A Fog Shallow Fog
9:00 AM 37.4 °F - 37.4 °F 100% 30.41 in 15.0 mi Calm Calm - N/A Fog Shallow Fog
10:00 AM 42 °F - 41 °F 95% 30.42 in 19 mi SE 2.3 mph - -   Partly Cloudy
10:00 AM 41.0 °F 39.0 °F 41.0 °F 100% 30.42 in 20.0 mi SE 3.5 mph - N/A   Overcast
11:00 AM 42.8 °F - 41.0 °F 93% 30.41 in 20.0 mi South 2.3 mph - N/A   Overcast
12:00 PM 42.8 °F 41.1 °F 41.0 °F 93% 30.39 in 20.0 mi SW 3.5 mph - N/A   Overcast
1:00 PM 42.8 °F 40.1 °F 41.0 °F 93% 30.38 in 15.0 mi WNW 4.6 mph - N/A   Overcast
1:48 PM 42.8 °F 40.1 °F 41.0 °F 93% 30.37 in 15.0 mi WSW 4.6 mph - N/A Rain Light Rain Showers
2:00 PM 42.8 °F 40.1 °F 41.0 °F 93% 30.37 in 15.0 mi SSW 4.6 mph - N/A Rain Light Rain Showers
3:00 PM 42.8 °F 41.1 °F 41.0 °F 93% 30.37 in 20.0 mi West 3.5 mph - N/A Rain Light Rain Showers
4:00 PM 43 °F - 41 °F 90% 30.37 in 15 mi West 3.5 mph - - Rain Light Rain Showers
4:00 PM 42.8 °F 41.1 °F 41.0 °F 93% 30.37 in 15.0 mi West 3.5 mph - N/A Rain Light Rain Showers
5:00 PM 42.8 °F - 41.0 °F 93% 30.36 in 15.0 mi Calm Calm - N/A Rain Light Rain Showers
5:27 PM 42.8 °F - 41.0 °F 93% 30.35 in 15.0 mi SSE 2.3 mph - N/A   Overcast
6:00 PM 42.8 °F - 41.0 °F 93% 30.35 in 15.0 mi South 2.3 mph - N/A   Overcast
6:32 PM 41.0 °F - 41.0 °F 100% 30.35 in 15.0 mi SSE 2.3 mph - N/A Rain Light Rain
7:00 PM 42.8 °F 40.1 °F 41.0 °F 93% 30.34 in 15.0 mi SE 4.6 mph - N/A Rain Light Rain
7:37 PM 42.8 °F - 41.0 °F 93% 30.33 in 15.0 mi Calm Calm - N/A   Overcast
7:56 PM 41.0 °F - 41.0 °F 100% 30.32 in 15.0 mi East 2.3 mph - N/A Rain Light Rain
8:00 PM 42.8 °F 41.1 °F 41.0 °F 93% 30.32 in 15.0 mi East 3.5 mph - N/A Rain Light Rain Showers
8:31 PM 41.0 °F - 41.0 °F 100% 30.32 in 15.0 mi NW 2.3 mph - N/A   Overcast
9:00 PM 42.8 °F - 41.0 °F 93% 30.32 in 15.0 mi NW 2.3 mph - N/A   Overcast
9:16 PM 41.0 °F 38.0 °F 41.0 °F 100% 30.32 in 15.0 mi NNW 4.6 mph - N/A Rain Light Rain Showers
10:00 PM 42 °F - 41 °F 96% 30.30 in 15 mi North 3.5 mph - - Rain Light Rain Showers
10:00 PM 42.8 °F 41.1 °F 41.0 °F 93% 30.30 in 15.0 mi North 3.5 mph - N/A Rain Light Rain Showers
11:00 PM 42.8 °F 41.1 °F 41.0 °F 93% 30.30 in 15.0 mi West 3.5 mph - N/A Rain Light Rain Showers